This is the latest recevied weather packets stored in our database for station/object F4ELU-13. If no packets are shown the sender has not sent any weather packets the latest 1 day(s).
| Time | Temp. | Humidity | Pressure | Rain* | Wind** | Luminosity | Snow |
|---|---|---|---|---|---|---|---|
| 1778011203 | 10° C | 96% | 1009.3 hPa | 0 mm | 0 m/s | - | - |
| 1778010843 | 10° C | 96% | 1009.3 hPa | 0 mm | 0 m/s | - | - |
| 1778010303 | 10.56° C | 95% | 1009.1 hPa | 0 mm | 0 m/s | - | - |
| 1778009763 | 10.56° C | 94% | 1009.1 hPa | 0 mm | 0 m/s | - | - |
| 1778009223 | 11.11° C | 93% | 1009.1 hPa | 0 mm | 0 m/s | - | - |
| 1778008683 | 11.11° C | 92% | 1009 hPa | 0 mm | 0 m/s | - | - |
| 1778008143 | 11.67° C | 90% | 1008.7 hPa | 0 mm | 0 m/s | - | - |
| 1778007603 | 11.67° C | 91% | 1008.5 hPa | 0 mm | 0 m/s | - | - |
| 1778007243 | 11.67° C | 90% | 1008.5 hPa | 0 mm | 0 m/s | - | - |
| 1778006703 | 12.22° C | 89% | 1008.4 hPa | 0 mm | 0 m/s | - | - |
| 1778006163 | 12.22° C | 89% | 1008.1 hPa | 0 mm | 0 m/s | - | - |
| 1778005623 | 12.78° C | 87% | 1008.2 hPa | 0 mm | 0 m/s | - | - |
| 1778005083 | 13.33° C | 86% | 1008.2 hPa | 0 mm | 0.45 m/s, 309° | - | - |
| 1778004543 | 13.33° C | 84% | 1008.3 hPa | 0 mm | 1.79 m/s, 311° | - | - |
| 1778004003 | 14.44° C | 83% | 1008.3 hPa | 0 mm | 1.79 m/s, 260° | - | - |
| 1778003643 | 14.44° C | 92% | 1008.2 hPa | 0 mm | 0.89 m/s, 202° | - | - |
| 1778003103 | 14.44° C | 89% | 1007.9 hPa | 0 mm | 0 m/s | - | - |
| 1778002563 | 15° C | 91% | 1007.9 hPa | 0 mm | 0 m/s | - | - |
| 1778002023 | 15° C | 90% | 1007.9 hPa | 0 mm | 0 m/s | - | - |
| 1778001483 | 15.56° C | 90% | 1007.8 hPa | 0 mm | 0 m/s | - | - |
| 1778000943 | 16.67° C | 85% | 1007.9 hPa | 0 mm | 0 m/s | - | - |
| 1778000403 | 15.56° C | 90% | 1007.9 hPa | 0 mm | 0 m/s | - | - |
| 1778000043 | 15.56° C | 88% | 1008 hPa | 0 mm | 0 m/s | - | - |
| 1777999503 | 15.56° C | 88% | 1008 hPa | 0 mm | 0 m/s | - | - |
| 1777998963 | 15° C | 89% | 1008.1 hPa | 0 mm | 0 m/s | - | - |
* Rain latest hour (hover to see other rain measurements)
** Current wind speed in m/s (hover to see current wind gust speed)